Time,TemperatureF,DewpointF,PressureIn,WindDirection,WindDirectionDegrees,WindSpeedMPH,WindSpeedGustMPH,Humidity,HourlyPrecipIn,Conditions,Clouds,dailyrainin,SoftwareType,DateUTC
2013-09-28 00:12:00,57.0,57.0,-100.00,East,90,1.0,10.0,101,-99.99,,,-99.99,,2013-09-28 07:12:00,
2013-09-28 01:21:00,56.0,56.0,-100.00,NE,45,2.0,11.0,101,-99.99,,,-99.99,,2013-09-28 08:21:00,
2013-09-28 02:22:00,56.0,56.0,-100.00,South,180,4.0,10.0,101,-99.99,,,-99.99,,2013-09-28 09:22:00,
2013-09-28 03:22:00,56.0,56.0,-100.00,South,180,3.0,9.0,101,-99.99,,,-99.99,,2013-09-28 10:22:00,
2013-09-28 05:22:00,56.0,56.0,-100.00,SE,135,3.0,9.0,101,-99.99,,,-99.99,,2013-09-28 12:22:00,
2013-09-28 05:52:00,57.0,57.0,-100.00,South,180,3.0,9.0,101,-99.99,,,-99.99,,2013-09-28 12:52:00,
2013-09-28 06:21:00,57.0,57.0,-100.00,SE,135,7.0,12.0,101,-99.99,,,-99.99,,2013-09-28 13:21:00,
2013-09-28 07:21:00,57.0,57.0,-100.00,South,180,7.0,14.0,101,-99.99,,,-99.99,,2013-09-28 14:21:00,
2013-09-28 08:22:00,56.0,56.0,-100.00,South,180,9.0,16.0,101,-99.99,,,-99.99,,2013-09-28 15:22:00,
2013-09-28 09:24:00,56.0,56.0,-100.00,South,180,11.0,22.0,101,-99.99,,,-99.99,,2013-09-28 16:24:00,
2013-09-28 10:23:00,56.0,56.0,-100.00,SE,135,10.0,22.0,101,-99.99,,,-99.99,,2013-09-28 17:23:00,
2013-09-28 11:22:00,56.0,56.0,-100.00,SE,135,8.0,21.0,101,-99.99,,,-99.99,,2013-09-28 18:22:00,
2013-09-28 14:22:00,58.0,58.0,-100.00,South,180,12.0,27.0,101,-99.99,,,-99.99,,2013-09-28 21:22:00,
2013-09-28 15:23:00,59.0,59.0,-100.00,SE,135,12.0,29.0,101,-99.99,,,-99.99,,2013-09-28 22:23:00,
2013-09-28 16:22:00,58.0,58.0,-100.00,SE,135,12.0,29.0,101,-99.99,,,-99.99,,2013-09-28 23:22:00,
2013-09-28 17:22:00,57.0,57.0,-100.00,South,180,16.0,31.0,101,-99.99,,,-99.99,,2013-09-29 00:22:00,
2013-09-28 18:21:00,57.0,57.0,-100.00,South,180,16.0,32.0,101,-99.99,,,-99.99,,2013-09-29 01:21:00,
2013-09-28 20:23:00,57.0,57.0,-100.00,SE,135,17.0,29.0,101,-99.99,,,-99.99,,2013-09-29 03:23:00,
2013-09-28 21:02:00,-999.0,-99.9,-100.00,South,180,16.0,33.0,-999,-99.99,,,-99.99,,2013-09-29 04:02:00,
2013-09-28 21:24:00,57.0,57.0,-100.00,South,180,15.0,32.0,101,-99.99,,,-99.99,,2013-09-29 04:24:00,
2013-09-28 23:22:00,54.0,54.0,-100.00,South,180,7.0,13.0,101,-99.99,,,-99.99,,2013-09-29 06:22:00,